This is the latest recevied weather packets stored in our database for station/object WA1OUI. If no packets are shown the sender has not sent any weather packets the latest 10 day(s).
| Time | Temp. | Humidity | Pressure | Rain* | Wind** | Luminosity | Snow |
|---|---|---|---|---|---|---|---|
| 1777061004 | 17.22° C | 23% | 1007.3 hPa | 0 mm | - | 445 W/m² | - |
| 1777060700 | 17.22° C | 23% | 1007.2 hPa | 0 mm | - | 461 W/m² | - |
| 1777060395 | 16.67° C | 25% | 1007.4 hPa | 0 mm | - | 476 W/m² | - |
| 1777060092 | 16.67° C | 25% | 1007.4 hPa | 0 mm | - | 491 W/m² | - |
| 1777059788 | 16.67° C | 23% | 1007.5 hPa | 0 mm | - | 505 W/m² | - |
| 1777059484 | 16.67° C | 23% | 1007.5 hPa | 0 mm | - | 516 W/m² | - |
| 1777059181 | 16.67° C | 27% | 1007.5 hPa | 0 mm | - | 526 W/m² | - |
| 1777058877 | 16.67° C | 25% | 1007.7 hPa | 0 mm | - | 533 W/m² | - |
| 1777058576 | 16.67° C | 25% | 1007.6 hPa | 0 mm | - | 539 W/m² | - |
| 1777058274 | 16.67° C | 23% | 1007.5 hPa | 0 mm | - | 546 W/m² | - |
| 1777057970 | 16.67° C | 23% | 1007.4 hPa | 0 mm | - | 555 W/m² | - |
| 1777057670 | 16.67° C | 24% | 1007.6 hPa | 0 mm | - | 565 W/m² | - |
| 1777057366 | 17.22° C | 24% | 1007.7 hPa | 0 mm | - | 579 W/m² | - |
| 1777057062 | 17.22° C | 26% | 1007.6 hPa | 0 mm | - | 503 W/m² | - |
| 1777056761 | 16.67° C | 28% | 1007.7 hPa | 0 mm | - | 604 W/m² | - |
| 1777056457 | 16.67° C | 26% | 1007.6 hPa | 0 mm | - | 619 W/m² | - |
| 1777056153 | 16.11° C | 26% | 1007.6 hPa | 0 mm | - | 610 W/m² | - |
| 1777055850 | 15.56° C | 24% | 1007.4 hPa | 0 mm | - | 643 W/m² | - |
| 1777055546 | 16.11° C | 24% | 1007.8 hPa | 0 mm | - | 653 W/m² | - |
| 1777055246 | 16.11° C | 27% | 1007.4 hPa | 0 mm | - | 664 W/m² | - |
| 1777054945 | 16.11° C | 26% | 1007.5 hPa | 0 mm | - | 673 W/m² | - |
| 1777054642 | 16.11° C | 26% | 1007.5 hPa | 0 mm | - | 684 W/m² | - |
| 1777054338 | 16.11° C | 25% | 1007.5 hPa | 0 mm | - | 691 W/m² | - |
| 1777054038 | 15.56° C | 30% | 1007.8 hPa | 0 mm | - | 699 W/m² | - |
| 1777053733 | 15.56° C | 26% | 1007.8 hPa | 0 mm | - | 709 W/m² | - |
* Rain latest hour (hover to see other rain measurements)
** Current wind speed in m/s (hover to see current wind gust speed)